Вернуться в каталог

STARLINK-5076

АктивенСвязьVLEO
NORAD 55401·PAYLOAD·🇺🇸 United States

Запущен Jan 31, 2023 с Vandenberg Space Force Base

Loading…

Ближайшие Пролёты (ближайшие 24 часа)

TLE

СвежийSource: CelesTrak SupGP

Эпоха: Sep 15, 2026, 01:32 UTC

1 55401C 23014L   26258.06437500  .00054183  00000+0  45407-2 0  2583
2 55401  69.9997 306.9138 0003800 266.4105  87.5354 14.98301799    15

Отслеживайте STARLINK-5076 в реальном времени с AllMySat

Download on the App Store